Weather reports worldwide

Advertisment
Weinbiet, Germany (10724): temperature & dewpoint: 06.11.2019 06:00:00 - 12.11.2019 06:00:00 (CET)Weinbiet, Germany (10724): temperature 5cm & temperature -5cm: 06.11.2019 06:00:00 - 12.11.2019 06:00:00 (CET)Weinbiet, Germany (10724): temperature -20cm & temperature -100cm: 06.11.2019 06:00:00 - 12.11.2019 06:00:00 (CET)Weinbiet, Germany (10724): wind speed & gusts: 06.11.2019 06:00:00 - 12.11.2019 06:00:00 (CET)Weinbiet, Germany (10724): wind direction: 06.11.2019 06:00:00 - 12.11.2019 06:00:00 (CET)Weinbiet, Germany (10724): reduced air pressure: 06.11.2019 06:00:00 - 12.11.2019 06:00:00 (CET)Weinbiet, Germany (10724): visibility: 06.11.2019 06:00:00 - 12.11.2019 06:00:00 (CET)Weinbiet, Germany (10724): sunshine duration: 06.11.2019 06:00:00 - 12.11.2019 06:00:00 (CET)Weinbiet, Germany (10724): precipitation: 06.11.2019 06:00:00 - 12.11.2019 06:00:00 (CET)
Date & Time tt [°C] td [°C] tt 5cm [°C] tt -5cm [°C] tt -20cm [°C] tt -100cm [°C] ff [km/h] ff [kn] fx [km/h] fx [kn] dd ppp [hPa] vv [km] sd [min] rr [mm]
12.11.2019 06:00:00 2,2 1,9 2,1 3,3 4,7 8,9 34 19 46 25 SW 1007,7 10 0 0,0
12.11.2019 05:00:00 2,2 1,9 2,1 3,4 4,7 8,9 29 16 49 26 SW 1008,1 10 0 0,0
12.11.2019 04:00:00 2,2 2,1 2,2 3,4 4,7 8,9 31 17 44 24 SW 1008,1 11 0 0,0
12.11.2019 03:00:00 2,4 2,4 2,4 3,4 4,7 8,9 26 14 38 21 WSW 1008,1 10 0 0,0
12.11.2019 02:00:00 2,3 2,3 2,3 3,4 4,7 8,9 27 15 40 21 WSW 1007,8 0,9 0 0,0
12.11.2019 01:00:00 2,5 2,5 2,6 3,4 4,7 8,9 25 13 43 23 WSW 1007,7 0,2 0 0,0
12.11.2019 00:00:00 2,4 2,4 2,4 3,3 4,7 8,9 32 18 41 22 W 1007,3 0,2 0 0,0
11.11.2019 23:00:00 1,9 1,9 2,0 3,2 4,8 9,0 23 12 35 19 WSW 1007,1 0,6 0 0,0
11.11.2019 22:00:00 1,6 1,6 1,7 3,2 4,8 9,0 23 12 42 23 SW 1007,2 10 0 0,5
11.11.2019 21:00:00 1,7 1,7 1,7 3,2 4,9 9,0 26 14 38 20 SW 1007,1 3,5 0 0,2
11.11.2019 20:00:00 1,4 1,4 1,6 3,2 5,0 9,0 21 11 39 21 SSW 1007,1 10 0 0,0
11.11.2019 19:00:00 0,9 0,9 0,9 3,4 5,0 9,0 22 12 35 19 S 1007,2 0,8 0 0,0
11.11.2019 18:00:00 0,4 0,4 0,8 3,6 5,1 9,0 19 10 33 18 SSE 1007,6 0,2 0 0,0
11.11.2019 17:00:00 0,3 0,3 0,8 3,8 5,1 9,0 23 12 34 18 SSE 1007,6 0,2 0 0,0
11.11.2019 16:00:00 0,1 0,1 0,9 4,2 5,1 9,1 20 11 24 13 SSE 1008,2 0,2 0 0,0
11.11.2019 15:00:00 -0,1 -0,1 0,9 4,3 5,1 9,1 15 8 22 12 SSE 1009,2 0,2 0 0,0
11.11.2019 14:00:00 -0,3 -0,4 0,8 4,4 5,0 9,1 15 8 28 15 SE 1009,6 0,2 0 0,0
11.11.2019 13:00:00 0,1 0,1 1,9 4,4 4,9 9,1 16 8 24 13 SSE 1010,3 0,2 0 0,0
11.11.2019 12:00:00 0,5 0,5 1,9 3,8 4,8 9,1 18 10 25 13 SE 1011,2 0,2 0 0,0
11.11.2019 11:00:00 0,3 0,3 1,0 3,4 4,8 9,1 17 9 21 12 SE 1012,5 0,1 0 0,0
11.11.2019 10:00:00 0,1 0,1 0,8 3,3 4,8 9,1 16 9 33 18 SSE 1013,0 0,1 0 0,0
11.11.2019 09:00:00 -0,1 -0,1 0,5 3,1 4,8 9,1 12 6 20 11 SE 1013,8 0,2 0 0,0
11.11.2019 08:00:00 0,1 0,1 0,5 3,1 4,9 9,2 14 8 22 12 ESE 1014,0 0,1 0 0,0
11.11.2019 07:00:00 0,3 0,3 0,6 3,2 4,9 9,2 10 6 24 13 SSE 1014,8 0,2 0 0,0
11.11.2019 06:00:00 0,3 0,3 0,8 3,2 5,0 9,2 16 9 26 14 SSE 1015,1 0,2 0 0,0
11.11.2019 05:00:00 0,3 0,3 0,7 3,3 5,1 9,2 9 5 18 10 SE 1015,5 0,2 0 0,0
11.11.2019 04:00:00 0,1 0,1 0,7 3,3 5,1 9,2 11 6 17 9 ESE 1016,0 0,2 0 0,0
11.11.2019 03:00:00 0,1 0,1 0,5 3,4 5,2 9,2 11 6 17 9 ESE 1016,3 0,2 0 0,0
11.11.2019 02:00:00 0,1 0,1 0,6 3,5 5,2 9,2 9 5 19 11 SSE 1016,8 0,2 0 0,0
11.11.2019 01:00:00 0,1 0,1 0,6 3,6 5,3 9,3 15 8 19 10 SE 1017,1 0,2 0 0,0
11.11.2019 00:00:00 0,4 0,4 1,0 3,7 5,4 9,3 13 7 17 9 SE 1017,1 0,2 0 0,0
10.11.2019 23:00:00 0,5 0,5 1,0 3,8 5,4 9,3 7 4 10 5 ESE 1017,4 0,2 0 0,0
10.11.2019 22:00:00 0,6 0,6 1,0 3,8 5,5 9,3 3 2 14 7 ESE 1017,3 0,2 0 0,0
10.11.2019 21:00:00 0,6 0,6 0,9 3,8 5,6 9,3 5 3 10 6 E 1017,1 0,2 0 0,0
10.11.2019 20:00:00 0,7 0,7 1,1 3,8 5,8 9,3 6 3 10 5 E 1017,2 0,2 0 0,0
10.11.2019 19:00:00 0,0 0,0 -0,1 3,9 6,0 9,4 5 3 8 4 E 1017,2 0,2 0 0,0
10.11.2019 18:00:00 0,1 0,1 0,1 4,4 6,2 9,4 2 1 10 5 E 1016,9 0,2 0 0,0
10.11.2019 17:00:00 2,9 -0,3 0,6 5,4 6,3 9,4 10 5 12 6 SSE 1015,4 11 36 0,0
10.11.2019 16:00:00 4,1 1,2 2,5 6,5 6,2 9,4 3 2 6 3 SW 1014,5 10 60 0,0
10.11.2019 15:00:00 4,3 0,7 4,2 8,0 5,8 9,4 4 2 6 4 ESE 1013,7 10 60 0,0
10.11.2019 14:00:00 4,3 1,3 7,9 8,0 5,3 9,4 3 2 17 9 ESE 1013,1 11 60 0,0
10.11.2019 13:00:00 3,5 1,7 7,7 6,7 4,9 9,5 6 4 17 9 E 1013,1 10 54 0,0
10.11.2019 12:00:00 2,7 1,3 6,6 4,8 4,6 9,5 7 4 21 11 E 1013,1 10 40 0,0
10.11.2019 11:00:00 2,0 0,7 2,0 3,4 4,5 9,5 14 8 28 15 E 1013,2 10 58 0,0
10.11.2019 10:00:00 1,8 0,7 3,6 2,4 4,5 9,5 20 11 25 14 E 1012,4 10 59 0,0
10.11.2019 09:00:00 1,1 1,1 0,8 1,9 4,5 9,5 16 9 19 10 E 1012,0 0,2 35 0,0
10.11.2019 08:00:00 1,0 1,0 0,3 1,8 4,7 9,5 15 8 21 11 ENE 1011,3 0,3 0 0,0
10.11.2019 07:00:00 1,0 1,0 0,1 2,0 4,8 9,5 17 9 19 11 E 1010,8 1,9 0 0,0
10.11.2019 06:00:00 0,6 0,6 0,4 2,0 4,9 9,5 16 9 23 12 E 1010,3 0,2 0 0,0
10.11.2019 05:00:00 1,9 1,4 0,7 2,1 5,1 9,6 17 9 19 10 E 1009,8 11 0 0,0
10.11.2019 04:00:00 2,0 1,6 0,7 2,3 5,3 9,6 14 8 16 9 E 1009,5 10 0 0,0
10.11.2019 03:00:00 2,3 1,9 0,7 2,5 5,4 9,6 12 7 15 8 ESE 1009,5 10 0 0,0
10.11.2019 02:00:00 2,5 1,3 0,5 2,7 5,6 9,6 12 7 14 8 SE 1009,6 10 0 0,0
10.11.2019 01:00:00 2,0 1,9 0,6 3,1 5,8 9,6 14 7 18 10 SE 1009,8 11 0 0,0
10.11.2019 00:00:00 2,4 1,2 0,7 3,5 6,0 9,6 8 5 10 5 E 1009,7 10 0 0,0
09.11.2019 23:00:00 3,0 1,3 1,9 3,7 6,1 9,6 7 4 15 8 SW 1009,9 10 0 0,0
09.11.2019 22:00:00 2,3 1,3 1,2 4,0 6,3 9,6 13 7 16 9 SW 1010,1 10 0 0,0
09.11.2019 21:00:00 2,9 1,7 1,8 4,4 6,4 9,6 11 6 18 10 SSW 1010,3 10 0 0,0
09.11.2019 20:00:00 2,8 2,1 2,4 4,4 6,6 9,6 14 7 29 16 WSW 1010,3 10 0 0,0
09.11.2019 19:00:00 2,8 1,6 2,2 4,5 6,8 9,7 16 9 22 12 SW 1010,5 10 0 0,0
09.11.2019 18:00:00 2,9 1,7 1,6 5,0 7,0 9,7 15 8 22 12 SSW 1010,6 10 0 0,0
09.11.2019 17:00:00 3,3 2,1 2,2 5,9 7,1 9,7 14 7 26 14 S 1010,5 11 19 0,1
09.11.2019 16:00:00 4,0 2,7 3,9 6,6 7,1 9,7 19 10 31 17 WSW 1010,6 11 13 0,0
09.11.2019 15:00:00 5,2 2,7 4,6 7,4 7,0 9,7 20 11 39 21 WSW 1010,5 11 56 0,0
09.11.2019 14:00:00 4,3 2,6 5,0 7,6 6,8 9,7 21 11 42 23 W 1011,0 10 19 0,0
09.11.2019 13:00:00 5,0 2,8 6,4 7,4 6,6 9,7 27 15 39 21 WSW 1010,8 10 29 0,0
09.11.2019 12:00:00 4,7 3,2 6,6 6,7 6,4 9,8 24 13 41 22 WSW 1011,0 10 57 0,0
09.11.2019 11:00:00 3,8 3,0 3,8 6,2 6,2 9,8 25 13 35 19 WSW 1011,4 11 31 0,0
09.11.2019 10:00:00 3,2 3,1 4,5 5,5 6,2 9,8 28 15 43 23 WSW 1011,3 3,2 10 0,0
09.11.2019 09:00:00 3,1 3,1 3,5 5,0 6,2 9,8 25 13 32 17 W 1011,4 0,2 0 0,0
09.11.2019 08:00:00 3,2 3,2 3,4 4,9 6,2 9,8 22 12 32 17 W 1010,8 0,2 0 0,0
09.11.2019 07:00:00 3,4 3,4 3,5 5,0 6,2 9,8 20 11 31 17 WSW 1010,6 0,2 0 0,0
09.11.2019 06:00:00 3,5 3,5 3,7 5,0 6,3 9,8 21 11 31 17 W 1010,1 0,2 0 0,0
09.11.2019 05:00:00 3,6 3,6 3,7 5,0 6,3 9,8 22 12 35 19 WSW 1009,7 0,2 0 0,0
09.11.2019 04:00:00 3,6 3,6 3,7 5,0 6,3 9,9 27 15 34 18 WSW 1009,6 0,2 0 0,0
09.11.2019 03:00:00 3,6 3,6 3,7 4,9 6,3 9,9 14 8 18 10 WSW 1009,5 0,2 0 0,0
09.11.2019 02:00:00 3,2 3,2 3,4 4,9 6,4 9,9 11 6 14 8 WSW 1009,6 0,2 0 0,0
09.11.2019 01:00:00 2,9 2,9 3,1 5,0 6,4 9,9 11 6 14 7 SW 1009,6 0,3 0 0,1
09.11.2019 00:00:00 2,8 2,6 3,0 5,0 6,5 9,9 5 3 10 5 SW 1009,8 10 0 0,0
08.11.2019 23:00:00 2,5 1,9 2,9 5,1 6,5 9,9 6 4 11 6 NNW 1009,4 11 0 0,1
08.11.2019 22:00:00 3,0 2,9 3,2 5,1 6,6 9,9 6 3 10 5 WNW 1009,0 1,5 0 0,5
08.11.2019 21:00:00 3,0 3,0 3,2 5,1 6,6 9,9 6 4 19 10 NW 1008,7 0,3 0 0,1
08.11.2019 20:00:00 3,0 3,0 3,2 5,2 6,7 10,0 10 5 21 11 NNW 1008,2 10 0 0,2
08.11.2019 19:00:00 3,0 2,9 3,2 5,4 6,8 10,0 13 7 27 14 NNW 1007,9 10 0 0,4
08.11.2019 18:00:00 3,2 3,0 3,2 5,6 6,9 10,0 18 10 27 15 N 1007,4 11 0 0,2
08.11.2019 17:00:00 3,3 3,1 3,5 5,9 6,9 10,0 14 7 25 13 N 1006,8 11 0 0,2
08.11.2019 16:00:00 3,7 3,5 4,0 6,3 6,9 10,0 13 7 22 12 NNE 1006,3 10 0 0,4
08.11.2019 15:00:00 4,2 3,7 4,6 6,5 6,8 10,0 12 6 24 13 NE 1005,9 10 0 0,0
08.11.2019 14:00:00 4,6 2,9 5,0 6,7 6,7 10,1 8 5 21 12 NNE 1005,7 10 0 0,0
08.11.2019 13:00:00 4,9 3,6 5,3 6,6 6,5 10,1 8 4 14 8 NNE 1005,6 11 0 0,0
08.11.2019 12:00:00 4,9 4,4 5,4 6,2 6,4 10,1 5 3 11 6 NNE 1005,7 11 0 0,0
08.11.2019 11:00:00 5,4 3,6 5,2 5,7 6,3 10,1 5 3 9 5 E 1005,8 10 0 0,0
08.11.2019 10:00:00 4,2 4,0 4,5 5,1 6,2 10,1 10 5 16 9 E 1005,9 11 0 0,0
08.11.2019 09:00:00 3,9 3,8 4,0 4,7 6,3 10,1 13 7 21 11 ENE 1006,0 10 0 0,0
08.11.2019 08:00:00 3,9 3,3 3,4 4,5 6,3 10,1 18 10 22 12 E 1005,9 10 0 0,0
08.11.2019 07:00:00 4,2 2,9 3,2 4,5 6,4 10,1 16 9 21 11 ESE 1005,6 10 0 0,0
08.11.2019 06:00:00 3,7 3,5 3,2 4,5 6,4 10,1 16 8 19 10 ESE 1005,7 10 0 0,0
08.11.2019 05:00:00 4,5 2,3 3,1 4,5 6,5 10,1 9 5 11 6 SE 1005,8 11 0 0,0
08.11.2019 04:00:00 3,9 3,0 3,1 4,5 6,6 10,2 10 5 11 6 ESE 1005,8 10 0 0,0
08.11.2019 03:00:00 4,3 2,5 2,9 4,6 6,8 10,2 10 5 17 9 SE 1006,0 10 0 0,0
08.11.2019 02:00:00 3,9 2,8 3,0 4,8 6,9 10,2 16 9 20 11 WSW 1006,0 10 0 0,0
08.11.2019 01:00:00 4,1 2,9 3,3 4,9 7,0 10,2 16 9 23 12 SW 1006,4 10 0 0,0
08.11.2019 00:00:00 4,0 3,5 3,5 5,1 7,1 10,2 16 9 25 14 SW 1006,6 10 0 0,0
07.11.2019 23:00:00 4,0 3,7 3,7 5,2 7,2 10,2 18 10 29 16 WSW 1006,2 10 0 0,0
07.11.2019 22:00:00 4,3 4,0 3,7 5,3 7,4 10,2 19 10 26 14 SW 1005,9 10 0 0,0
07.11.2019 21:00:00 4,3 3,8 3,7 5,6 7,5 10,2 18 10 28 15 WSW 1005,6 10 0 0,0
07.11.2019 20:00:00 4,6 4,4 4,0 5,8 7,6 10,2 16 8 31 17 S 1004,7 10 0 0,0
07.11.2019 19:00:00 5,0 4,9 4,3 6,2 7,8 10,2 23 12 37 20 W 1004,0 10 0 0,0
07.11.2019 18:00:00 5,3 5,0 4,9 6,4 7,9 10,2 24 13 56 31 WSW 1003,5 10 0 0,0
07.11.2019 17:00:00 5,5 4,9 4,9 7,0 7,9 10,2 37 20 55 30 WSW 1002,2 10 1 0,0
07.11.2019 16:00:00 5,8 5,7 5,5 7,5 7,9 10,3 31 17 49 27 WSW 1001,4 10 18 0,0
07.11.2019 15:00:00 6,0 5,9 6,3 7,5 7,9 10,3 31 17 45 24 SW 1001,1 10 0 0,1
07.11.2019 14:00:00 5,3 5,3 5,7 7,6 7,8 10,3 28 15 57 31 S 1000,9 4,8 0 0,4
07.11.2019 13:00:00 5,2 5,2 5,9 7,6 7,7 10,3 32 17 57 31 S 1000,7 4,8 0 0,6
07.11.2019 12:00:00 4,9 4,6 5,1 7,4 7,6 10,3 31 17 58 31 S 1001,2 10 0 1,1
07.11.2019 11:00:00 6,7 4,8 7,2 7,3 7,6 10,3 23 12 33 18 SSE 1000,6 10 0 0,0
07.11.2019 10:00:00 5,0 4,9 5,5 6,6 7,5 10,3 19 10 29 15 SE 1000,8 2,5 7 0,0
07.11.2019 09:00:00 5,2 5,0 5,2 6,3 7,6 10,3 22 12 35 19 SSE 1001,5 10 14 0,0
07.11.2019 08:00:00 5,3 4,4 5,1 6,1 7,7 10,3 23 13 36 19 S 1001,8 10 0 0,0
07.11.2019 07:00:00 5,3 4,7 4,9 6,2 7,8 10,3 17 9 27 15 S 1002,1 11 0 0,0
07.11.2019 06:00:00 5,9 4,5 5,3 6,6 7,8 10,3 17 9 28 15 SSW 1002,3 10 0 0,0
07.11.2019 05:00:00 5,9 4,6 5,5 6,7 7,9 10,3 18 10 32 17 SSW 1002,6 10 0 0,0
07.11.2019 04:00:00 5,9 5,3 5,7 6,8 7,9 10,3 18 10 29 15 SSW 1002,9 10 0 0,0
07.11.2019 03:00:00 5,9 5,4 5,8 6,8 8,0 10,3 20 11 29 15 SSW 1003,3 10 0 0,0
07.11.2019 02:00:00 5,8 5,4 5,7 6,9 8,0 10,3 17 9 31 17 WSW 1003,8 11 0 0,0
07.11.2019 01:00:00 6,0 5,7 5,9 7,0 8,1 10,3 21 11 37 20 SW 1004,3 10 0 0,0
07.11.2019 00:00:00 6,1 5,7 5,9 7,1 8,1 10,4 26 14 41 22 WSW 1004,6 10 0 0,0
06.11.2019 23:00:00 6,1 5,9 6,0 7,2 8,2 10,4 26 14 39 21 WSW 1004,8 10 0 0,0
06.11.2019 22:00:00 6,2 6,2 6,3 7,3 8,2 10,4 27 15 39 21 WSW 1004,9 11 0 0,0
06.11.2019 21:00:00 6,4 6,4 6,4 7,3 8,3 10,4 22 12 32 17 WSW 1004,7 0,2 0 0,1
06.11.2019 20:00:00 6,4 6,0 6,3 7,2 8,4 10,4 23 12 35 19 SW 1004,6 11 0 0,0
06.11.2019 19:00:00 6,3 5,9 6,2 7,4 8,4 10,4 22 12 30 16 WSW 1004,7 10 0 0,0
06.11.2019 18:00:00 6,2 5,7 5,8 7,8 8,5 10,4 21 11 32 17 WSW 1004,8 10 0 0,0
06.11.2019 17:00:00 6,7 5,8 6,5 8,2 8,5 10,4 20 11 44 24 WSW 1004,4 10 0 0,0
06.11.2019 16:00:00 7,1 6,0 7,0 8,7 8,4 10,4 25 14 35 19 WSW 1004,3 10 0 0,0
06.11.2019 15:00:00 7,3 5,7 7,5 9,0 8,3 10,4 25 14 39 21 WSW 1004,2 11 2 0,0
06.11.2019 14:00:00 7,3 5,7 7,6 8,9 8,1 10,4 23 12 34 18 WSW 1004,2 10 5 0,0
06.11.2019 13:00:00 7,4 6,0 8,6 8,5 7,9 10,5 20 11 30 16 WSW 1004,2 11 5 0,0
06.11.2019 12:00:00 6,6 5,6 7,3 8,1 7,8 10,5 19 11 29 16 WSW 1004,3 10 0 0,0
06.11.2019 11:00:00 6,2 5,7 6,7 7,5 7,7 10,5 17 9 31 17 WSW 1004,2 10 0 0,0
06.11.2019 10:00:00 5,7 5,7 6,2 6,9 7,6 10,5 19 10 29 16 WSW 1004,2 10 0 0,0
06.11.2019 09:00:00 5,3 5,3 5,4 6,4 7,7 10,5 21 12 31 17 W 1003,8 0,9 0 0,0
06.11.2019 08:00:00 5,2 5,2 5,2 6,4 7,7 10,5 21 11 29 16 W 1003,0 0,2 0 0,0
06.11.2019 07:00:00 5,4 5,4 5,3 6,6 7,7 10,5 22 12 31 17 W 1002,3 0,2 0 0,0
06.11.2019 06:00:00 5,6 5,6 5,7 6,5 7,8 10,5 27 14 30 16 W 1001,9 0,2 0 0,0

tt = temperature
td = dewpoint
tt 5cm = temperature 5cm
tt -5cm = temperature -5cm
tt -20cm = temperature -20cm
tt -100cm = temperature -100cm
ff = wind speed
fx = gusts
dd = wind direction
ppp = reduced air pressure
vv = visibility
sd = sunshine duration
rr = precipitation

Next stations